Regional Weather Roundup
Issued by NWS

Home | Current Version | Previous Version | Text Only | Print | Product List | Glossary Off
Versions: 1 2 3 4 5 6 7 8 9 10 11 12 13 14 15 16 17 18 19 20 21 22 23 24 25 26 27 28 29 30 31 32 33 34 35 36 37 38 39 40 41 42 43 44 45 46 47 48 49 50

000
ASUS43 KLOT 291104
RWRIL

ILLINOIS REGIONAL WEATHER ROUNDUP
NATIONAL WEATHER SERVICE CHICAGO/ROMEOVILLE IL
600 AM CDT MON MAY 29 2017

NOTE: "FAIR" INDICATES FEW OR NO CLOUDS BELOW 12,000 FEET WITH NO
SIGNIFICANT WEATHER AND/OR OBSTRUCTIONS TO VISIBILITY.

* THESE STATIONS ARE NOT UNDER NWS QUALITY CONTROL. THEY ALSO MAY NOT
  REPORT WEATHER SUCH AS PRECIPITATION OR FOG.

ILZ001-002-007-009-015-016-024-291200-
NORTHWEST ILLINOIS

CITY           SKY/WX    TMP DP  RH WIND       PRES   REMARKS
MOLINE         CLOUDY    58  48  69 W5        29.85R
STERLING*      PTCLDY    57  51  80 W9        29.84R
SAVANNA*       CLOUDY    57  50  77 SE3       29.83S
$$

ILZ003-004-008-010-011-017-018-291200-
NORTH CENTRAL ILLINOIS

CITY           SKY/WX    TMP DP  RH WIND       PRES   REMARKS
ROCKFORD       LGT RAIN  58  50  75 W8        29.82R
FREEPORT*      MOCLDY    56  48  72 SW7       29.84R
ROCHELLE*      CLOUDY    57  52  82 W8        29.83R
DE KALB*       CLOUDY    59  50  71 W9        29.82R
PERU*          CLEAR     55  47  76 W9        29.83R
$$

ILZ005-006-012>014-019>023-291200-
NORTHEAST ILLINOIS

CITY           SKY/WX    TMP DP  RH WIND       PRES   REMARKS
CHICAGO-OHARE  PTCLDY    59  50  72 W8        29.78R
CHICAGO-MIDWAY PTCLDY    61  51  70 SW8       29.79R
AURORA         CLEAR     56  51  84 W9        29.81R
LANSING*       CLEAR     57  53  84 SW3       29.81R
JOLIET*        CLEAR     59  53  81 CALM      29.81R
WAUKEGAN       CLEAR     59  49  69 SW6       29.76R
DUPAGE AIRPORT CLEAR     56  53  90 W7        29.79R
KANKAKEE*      CLEAR     58  51  78 CALM      29.84R
WHEELING       CLEAR     60  52  74 W6        29.79R
MORRIS*        CLEAR     57  51  78 CALM      29.80R
ROMEOVILLE*    CLEAR     57  54  88 W8        29.81R
NORTHERLY ISL    N/A     63  49  60 SW1         N/A
$$

LMZ740>746-291200-
SOUTHERN LAKE MICHIGAN

STATION/POSITION SKY/WX   TEMP    WIND        PRES    VSBY  WAVE
                          AIR SEA DIR/SP/G                  HT/PER
                          (F)     (DEG/KT/KT) (MB)    (MI)  (FT/S)
SOUTHERN BUOY              52 47  240/ 10/ 10 1007.2          0
WILMETTE HARBOR            58 55  230/  8/  8   N/A           1
HARRISON CRIB              66     250/ 14/ 16   N/A
BURNHAM HARBOR             63     220/  1/  7   N/A
CALUMET HARBOR             62     230/  4/  8 1008.2R
BURNS HARBOR               63     220/  9/ 14 1009.5R
MICHIGAN CITY              62     200/ 11/ 11   N/A
MICHIGAN CITY 6N           60 56  220/  8/ 12   N/A           1
ST. JOSEPH                 61 59  230/ 10/ 12 1008.5R         1
$$

ILZ025>027-034>036-040-047-049-050-058-095>099-291200-
WEST-CENTRAL ILLINOIS

CITY           SKY/WX    TMP DP  RH WIND       PRES   REMARKS
QUINCY         CLEAR     54  51  90 S8        29.88F
GALESBURG*     CLEAR     56  48  76 NW5       29.86R
MACOMB*        CLEAR     56  50  81 SW6       29.88S
PITTSFIELD*    CLEAR     61  52  73 CALM      29.91S
$$

ILZ028>032-037-038-041>044-048-051>054-059>061-291200-
CENTRAL ILLINOIS

CITY           SKY/WX    TMP DP  RH WIND       PRES   REMARKS
PONTIAC        CLEAR     57  53  85 CALM      29.85R
BLOOMINGTON    CLEAR     58  52  80 W9        29.88R
DECATUR        CLEAR     62  55  77 W8        29.89R
PEORIA         CLEAR     56  50  80 CALM      29.86R
LACON*         CLEAR     59  49  69 CALM      29.83S
LINCOLN*       CLEAR     63  53  70 CALM      29.88R
SPRINGFIELD    CLEAR     59  55  87 SW3       29.90R
TAYLORVILLE    CLEAR     59  55  88 SW6       29.89S
$$

ILZ033-039-045-046-055>057-062-063-291200-
EAST-CENTRAL ILLINOIS

CITY           SKY/WX    TMP DP  RH WIND       PRES   REMARKS
CHAMPAIGN      CLEAR     59  53  80 SW6       29.88R
RANTOUL*       CLEAR     62  55  79 W5        29.87R
MATTOON        CLEAR     62  56  80 SW7       29.89R
PARIS*         CLEAR     60  55  85 SW9       29.90R
$$

ILZ079-100>102-291200-
SOUTHWEST ILLINOIS

CITY           SKY/WX    TMP DP  RH WIND       PRES   REMARKS
ALTON          CLEAR     59  55  88 SW6       29.91S
BELLEVILLE     CLEAR     58  55  87 SW3       29.93R
CAHOKIA*       PTCLDY    62  54  74 SW5       29.92R
SPARTA*        CLEAR     61  55  82 SW3       29.93F
$$

ILZ064>066-069>071-074>076-080>082-084>086-088>090-092>094-291200-
SOUTH-CENTRAL ILLINOIS

CITY           SKY/WX    TMP DP  RH WIND       PRES   REMARKS
CARBONDALE     CLEAR     58  57  97 S5        29.94S
CAIRO*         CLOUDY    63  62  98 S3        29.95S
EFFINGHAM*     PTCLDY    59  58  97 SW3       29.93R
MARION         CLOUDY    63  61  94 SW3       29.95S
MT. VERNON     FOG       54  54 100 CALM      29.93S VSB 1/4
CENTRALIA*     CLEAR     60  57  89 SW3       29.92S
SALEM*         CLEAR     61  56  85 SW6       29.92R
$$

ILZ067-068-072-073-078-083-087-091-291200-
SOUTHEAST ILLINOIS

CITY           SKY/WX    TMP DP  RH WIND       PRES   REMARKS
LAWRENCEVILLE  CLOUDY    61  57  87 S6        29.93R
FLORA*         CLOUDY    64  58  81 SW6       29.92S
FAIRFIELD*     CLEAR     58  58 100 CALM      29.92S
HARRISBURG*    MOCLDY    58  58 100 CALM      29.95R FOG
ROBINSON*      MOCLDY    61  56  83 SW7       29.92R
CARMI*         MOCLDY    60  59  94 CALM      29.93S
$$

ABBREVIATIONS USED IN REMARKS
   TC - TEMPERATURE IN CELSIUS
  WCI - WIND CHILL INDEX
   HX - HEAT INDEX
  VSB - VISIBILITY
$$





USA.gov is the U.S. government's official web portal to all federal, state and local government web resources and services.